OE3APM-13 Weather Reports


Display with metric or nautical units.
time (UTC)temp
F
wind
direction
speed
MPH
gust
MPH
rain 1hr
in
rain 24hr
in
rain mn
in
humidity
%
barometer
mb
20260508035725 37 273 0.0 0.0 0.00 0.00 0.00 90 1016.2
20260508035226 37 273 0.0 0.0 0.00 0.00 0.00 90 1016.2
20260508034722 37 273 0.0 0.0 0.00 0.00 0.00 89 1016.2
20260508034219 37 273 0.0 0.0 0.00 0.00 0.00 89 1016.2
20260508033715 37 273 0.0 0.0 0.00 0.00 0.00 89 1016.2
20260508033215 37 273 0.0 0.0 0.00 0.00 0.00 89 1016.2
20260508032716 37 273 0.0 0.0 0.00 0.00 0.00 89 1016.2
20260508032230 37 273 0.0 0.0 0.00 0.00 0.00 89 1016.1
20260508031717 37 273 0.0 0.0 0.00 0.00 0.00 88 1016.0
20260508031217 38 273 0.0 0.0 0.00 0.00 0.00 88 1016.0
20260508030713 38 273 0.0 0.0 0.00 0.00 0.00 88 1016.0
20260508030212 38 273 0.0 0.0 0.00 0.00 0.00 89 1016.0
20260508025711 38 273 0.0 0.0 0.00 0.00 0.00 88 1015.9
20260508025209 38 273 0.0 0.0 0.00 0.00 0.00 87 1015.9
20260508024708 38 273 0.0 0.0 0.00 0.00 0.00 87 1015.9
20260508024209 38 273 0.0 0.0 0.00 0.00 0.00 87 1015.8
20260508023703 39 273 0.0 0.0 0.00 0.00 0.00 87 1015.8
20260508023203 39 273 0.0 0.0 0.00 0.00 0.00 86 1015.9
20260508022701 39 273 0.0 0.0 0.00 0.00 0.00 86 1015.8
20260508022204 39 273 0.0 0.0 0.00 0.00 0.00 87 1015.8
20260508021654 40 273 0.0 0.0 0.00 0.00 0.00 87 1015.8
20260508021156 40 273 0.0 0.0 0.00 0.00 0.00 87 1015.8
20260508020648 40 273 0.0 0.0 0.00 0.00 0.00 87 1015.8
20260508020144 40 273 0.0 0.0 0.00 0.00 0.00 87 1015.8
20260508015632 41 273 0.0 0.0 0.00 0.00 0.00 88 1015.8
20260508015126 41 273 0.0 0.0 0.00 0.00 0.00 88 1015.8
20260508014620 41 273 0.0 0.0 0.00 0.00 0.00 88 1015.8
20260508014117 41 273 0.0 0.0 0.00 0.00 0.00 88 1015.9
20260508013614 41 273 0.0 0.0 0.00 0.00 0.00 88 1015.8
20260508013103 42 273 0.0 0.0 0.00 0.00 0.00 87 1015.8
20260508012603 42 273 0.0 0.0 0.00 0.00 0.00 86 1015.7
20260508012054 42 273 0.0 0.0 0.00 0.00 0.00 86 1015.7
20260508011550 42 273 0.0 0.0 0.00 0.00 0.00 86 1015.7
20260508011048 42 273 0.0 0.0 0.00 0.00 0.00 86 1015.8
20260508010548 42 273 0.0 0.0 0.00 0.00 0.00 86 1015.7
20260508010047 43 273 0.0 0.0 0.00 0.00 0.00 86 1015.7
20260508005547 43 273 0.0 0.0 0.00 0.00 0.00 86 1015.7
20260508005047 43 273 0.0 0.0 0.00 0.00 0.00 86 1015.7
20260508004544 43 273 0.0 0.0 0.00 0.00 0.00 86 1015.8
20260508004042 43 273 0.0 2.0 0.00 0.00 0.00 85 1015.7
20260508003540 44 273 0.0 2.0 0.00 0.00 0.00 84 1015.7
20260508003037 44 273 0.0 1.0 0.00 0.00 0.00 84 1015.7
20260508002538 44 273 0.0 1.0 0.00 0.00 0.00 84 1015.7
20260508002036 44 273 0.0 1.0 0.00 0.00 0.00 84 1015.7
20260508001534 44 273 0.0 1.0 0.00 0.00 0.00 85 1015.7
20260508001034 45 273 0.0 1.0 0.00 0.00 0.00 85 1015.7
20260508000533 45 273 0.0 3.0 0.00 0.00 0.00 86 1015.7
20260508000044 45 273 1.0 3.0 0.00 0.00 0.00 86 1015.7
20260507235530 45 273 2.0 3.0 0.00 0.00 0.00 86 1015.7
20260507235028 45 274 2.0 3.0 0.00 0.00 0.00 85 1015.7
20260507234527 45 286 1.0 3.0 0.00 0.00 0.00 84 1015.8
20260507234027 46 288 1.0 2.0 0.00 0.00 0.00 83 1015.7
20260507233527 46 288 1.0 2.0 0.00 0.00 0.00 83 1015.7
20260507233028 46 288 0.0 2.0 0.00 0.00 0.00 82 1015.8
20260507232525 46 288 1.0 4.0 0.00 0.00 0.00 82 1015.8
20260507232025 46 288 2.0 4.0 0.00 0.00 0.00 82 1015.8
20260507231522 47 294 2.0 4.0 0.00 0.00 0.00 82 1015.7
20260507231018 47 279 2.0 4.0 0.00 0.00 0.00 81 1015.8
20260507230518 47 294 2.0 4.0 0.00 0.00 0.00 81 1015.8
20260507230017 47 319 2.0 4.0 0.00 0.00 0.00 81 1015.8
20260507225517 47 310 2.0 3.0 0.00 0.00 0.00 81 1015.8
20260507225018 48 311 2.0 4.0 0.00 0.00 0.00 80 1015.9
20260507224520 48 303 2.0 4.0 0.00 0.00 0.00 80 1015.9
20260507224015 48 283 1.0 4.0 0.00 0.00 0.00 79 1015.9
20260507223505 48 284 2.0 4.0 0.00 0.00 0.00 80 1015.9
20260507222955 49 290 2.0 4.0 0.00 0.00 0.00 80 1015.9
20260507222445 49 297 2.0 5.0 0.00 0.00 0.00 79 1015.9
20260507221935 49 284 2.0 5.0 0.00 0.00 0.00 80 1015.9
20260507221435 49 307 2.0 4.0 0.00 0.00 0.00 79 1015.9
20260507220936 49 298 2.0 6.0 0.00 0.00 0.00 79 1015.8
20260507220433 49 287 3.0 6.0 0.00 0.00 0.00 78 1015.8
20260507215933 50 289 3.0 6.0 0.00 0.00 0.00 78 1015.8
20260507215432 50 285 3.0 6.0 0.00 0.00 0.00 77 1015.7
20260507214932 50 292 4.0 9.0 0.00 0.00 0.00 77 1015.7
20260507214435 50 302 4.0 9.0 0.00 0.00 0.00 77 1015.8
20260507213933 50 342 4.0 8.0 0.00 0.00 0.00 76 1015.8
20260507213432 51 283 3.0 8.0 0.00 0.00 0.00 75 1015.7
20260507212932 51 305 3.0 8.0 0.00 0.00 0.00 74 1015.8
20260507212432 51 284 3.0 6.0 0.00 0.00 0.00 74 1015.7
20260507211930 51 296 4.0 7.0 0.00 0.00 0.00 73 1015.7
20260507211438 52 282 4.0 7.0 0.00 0.00 0.00 73 1015.7
20260507210930 52 280 3.0 7.0 0.00 0.00 0.00 72 1015.7
20260507210432 52 260 3.0 7.0 0.00 0.00 0.00 72 1015.7
20260507205932 53 276 4.0 8.0 0.00 0.00 0.00 71 1015.8
20260507205430 53 329 5.0 10.0 0.00 0.00 0.00 71 1015.7
20260507204930 53 305 5.0 10.0 0.00 0.00 0.00 71 1015.7
20260507204429 53 300 5.0 8.0 0.00 0.00 0.00 70 1015.5
20260507203932 53 303 4.0 9.0 0.00 0.00 0.00 70 1015.5
20260507203424 53 297 4.0 9.0 0.00 0.00 0.00 70 1015.5
20260507202915 53 319 5.0 8.0 0.00 0.00 0.00 70 1015.4
20260507202414 53 298 5.0 8.0 0.00 0.00 0.00 70 1015.4
20260507201914 54 276 4.0 8.0 0.00 0.00 0.00 70 1015.3
20260507201416 54 319 5.0 10.0 0.00 0.00 0.00 69 1015.2
20260507200916 54 297 6.0 11.0 0.00 0.00 0.00 69 1015.1
20260507200413 54 331 7.0 13.0 0.00 0.00 0.00 69 1015.1
20260507195912 55 330 7.0 13.0 0.00 0.00 0.00 69 1015.0
20260507195412 55 306 8.0 12.0 0.00 0.00 0.00 69 1015.0
20260507194913 55 311 9.0 13.0 0.00 0.00 0.00 69 1014.9
20260507194410 55 314 8.0 13.0 0.00 0.00 0.00 69 1014.9
20260507193910 55 320 7.0 13.0 0.00 0.00 0.00 69 1014.8
20260507193411 56 292 7.0 13.0 0.00 0.00 0.00 69 1014.7
20260507192910 56 328 7.0 13.0 0.00 0.00 0.00 69 1014.7
20260507192409 56 327 6.0 10.0 0.00 0.00 0.00 68 1014.7
20260507191911 56 321 7.0 11.0 0.00 0.00 0.00 68 1014.5
20260507191412 56 5 6.0 11.0 0.00 0.00 0.00 68 1014.5
20260507190910 56 325 6.0 9.0 0.00 0.00 0.00 68 1014.5
20260507190412 56 325 6.0 10.0 0.00 0.00 0.00 68 1014.4
20260507185909 56 306 6.0 10.0 0.00 0.00 0.00 68 1014.4
20260507185410 56 323 5.0 9.0 0.00 0.00 0.00 68 1014.3
20260507184908 56 340 4.0 9.0 0.00 0.00 0.00 67 1014.2
20260507184408 56 310 3.0 5.0 0.00 0.00 0.00 67 1014.1
20260507183907 56 312 3.0 5.0 0.00 0.00 0.00 67 1014.0
20260507183408 56 330 2.0 4.0 0.00 0.00 0.00 66 1013.9
20260507182908 57 332 2.0 3.0 0.00 0.00 0.00 66 1013.8
20260507182409 57 332 1.0 3.0 0.00 0.00 0.00 66 1013.7
20260507181909 57 332 1.0 2.0 0.00 0.00 0.00 65 1013.6
20260507181402 57 332 1.0 3.0 0.00 0.00 0.00 64 1013.6
20260507180901 57 332 2.0 4.0 0.00 0.00 0.00 64 1013.5
20260507180403 57 332 3.0 4.0 0.00 0.00 0.00 64 1013.4
20260507175903 57 340 3.0 5.0 0.00 0.00 0.00 63 1013.3
20260507175403 58 335 4.0 6.0 0.00 0.00 0.00 63 1013.2
20260507174903 58 338 5.0 7.0 0.00 0.00 0.00 62 1013.1
20260507174403 58 331 6.0 9.0 0.00 0.00 0.00 61 1013.1
20260507173905 58 309 5.0 9.0 0.00 0.00 0.00 60 1013.0
20260507173403 59 339 6.0 10.0 0.00 0.00 0.00 60 1013.0
20260507172903 59 335 7.0 15.0 0.00 0.00 0.00 59 1013.0
20260507172403 60 315 8.0 15.0 0.00 0.00 0.00 58 1012.9
20260507171905 60 321 9.0 18.0 0.00 0.00 0.00 57 1012.9
20260507171402 61 305 7.0 18.0 0.00 0.00 0.00 56 1012.9
20260507170902 61 316 3.0 10.0 0.00 0.00 0.00 56 1012.8
20260507170402 62 288 4.0 7.0 0.00 0.00 0.00 55 1012.5
20260507165901 62 279 4.0 7.0 0.00 0.00 0.00 54 1012.5
20260507165402 62 288 4.0 10.0 0.00 0.00 0.00 55 1012.5
20260507164903 62 269 4.0 10.0 0.00 0.00 0.00 52 1012.5
20260507164403 62 251 3.0 8.0 0.00 0.00 0.00 53 1012.5
20260507163903 62 261 3.0 7.0 0.00 0.00 0.00 53 1012.4
20260507163403 62 276 3.0 8.0 0.00 0.00 0.00 55 1012.5
20260507162902 62 284 4.0 9.0 0.00 0.00 0.00 53 1012.5
20260507162402 62 293 4.0 9.0 0.00 0.00 0.00 53 1012.4
20260507161902 62 279 4.0 7.0 0.00 0.00 0.00 53 1012.4
20260507161401 62 249 3.0 7.0 0.00 0.00 0.00 51 1012.4
20260507160902 63 298 4.0 9.0 0.00 0.00 0.00 51 1012.4
20260507160400 63 296 5.0 9.0 0.00 0.00 0.00 51 1012.4
20260507155858 63 325 6.0 10.0 0.00 0.00 0.00 49 1012.3
20260507155358 64 306 5.0 10.0 0.00 0.00 0.00 50 1012.2
20260507154858 64 325 5.0 10.0 0.00 0.00 0.00 48 1012.2
20260507154359 64 286 5.0 10.0 0.00 0.00 0.00 48 1012.2
20260507153856 64 265 5.0 9.0 0.00 0.00 0.00 48 1012.2
20260507153606 65 317 4.0 8.0 0.00 0.00 0.00 48 1012.3
20260507153347 65 317 4.0 8.0 0.00 0.00 0.00 48 1012.3
20260507152845 65 290 5.0 9.0 0.00 0.00 0.00 49 1012.3
20260507152545 65 290 5.0 13.0 0.00 0.00 0.00 52 1012.3
20260507152342 65 247 5.0 13.0 0.00 0.00 0.00 48 1012.3
20260507151842 65 290 5.0 13.0 0.00 0.00 0.00 52 1012.3
20260507151342 64 293 5.0 10.0 0.00 0.00 0.00 48 1012.2
20260507150839 64 245 6.0 11.0 0.00 0.00 0.00 50 1012.3
20260507150340 64 310 6.0 11.0 0.00 0.00 0.00 48 1012.3
20260507145837 65 292 5.0 10.0 0.00 0.00 0.00 48 1012.3
20260507145339 65 300 4.0 10.0 0.00 0.00 0.00 49 1012.2
20260507144836 65 299 5.0 11.0 0.00 0.00 0.00 47 1012.2
20260507144336 65 300 6.0 11.0 0.00 0.00 0.00 46 1012.2
20260507143837 66 274 6.0 13.0 0.00 0.00 0.00 44 1012.1
20260507143334 67 296 6.0 13.0 0.00 0.00 0.00 46 1012.2
20260507142833 66 270 6.0 10.0 0.00 0.00 0.00 48 1012.1
20260507142332 65 298 6.0 10.0 0.00 0.00 0.00 47 1012.1
20260507141832 65 296 6.0 10.0 0.00 0.00 0.00 48 1012.1
20260507141332 65 258 6.0 13.0 0.00 0.00 0.00 47 1012.2
20260507140831 65 340 7.0 13.0 0.00 0.00 0.00 49 1012.2
20260507140325 66 237 6.0 12.0 0.00 0.00 0.00 47 1012.2
20260507135827 66 302 6.0 12.0 0.00 0.00 0.00 46 1012.1
20260507135321 66 264 7.0 15.0 0.00 0.00 0.00 46 1012.2
20260507134809 66 290 7.0 15.0 0.00 0.00 0.00 46 1012.2
20260507134304 66 252 7.0 14.0 0.00 0.00 0.00 49 1012.2
20260507133804 65 321 7.0 14.0 0.00 0.00 0.00 47 1012.2
20260507133304 66 257 7.0 17.0 0.00 0.00 0.00 46 1012.3
20260507132803 65 271 7.0 17.0 0.00 0.00 0.00 49 1012.3
20260507132307 66 339 7.0 13.0 0.00 0.00 0.00 47 1012.3
20260507131804 67 264 7.0 13.0 0.00 0.00 0.00 46 1012.3
20260507131304 67 310 6.0 15.0 0.00 0.00 0.00 47 1012.3
20260507130802 67 333 8.0 15.0 0.00 0.00 0.00 48 1012.2
20260507130303 67 285 8.0 17.0 0.00 0.00 0.00 46 1012.3
20260507125802 68 262 7.0 17.0 0.00 0.00 0.00 46 1012.3
20260507125306 68 321 6.0 12.0 0.00 0.00 0.00 49 1012.3
20260507124801 67 274 5.0 12.0 0.00 0.00 0.00 50 1012.3
20260507124300 67 265 7.0 16.0 0.00 0.00 0.00 47 1012.3
20260507123802 67 259 7.0 16.0 0.00 0.00 0.00 49 1012.3
20260507123300 66 256 5.0 16.0 0.00 0.00 0.00 52 1012.3
20260507122759 65 259 6.0 14.0 0.00 0.00 0.00 49 1012.2
20260507122300 66 284 8.0 14.0 0.00 0.00 0.00 49 1012.3
20260507121758 66 260 8.0 15.0 0.00 0.00 0.00 49 1012.3
20260507121252 66 196 7.0 15.0 0.00 0.00 0.00 46 1012.3
20260507120742 66 285 8.0 15.0 0.00 0.00 0.00 47 1012.2
20260507120242 67 235 8.0 15.0 0.00 0.00 0.00 46 1012.3
20260507115744 67 284 7.0 15.0 0.00 0.00 0.00 48 1012.2
20260507115242 66 279 8.0 19.0 0.00 0.00 0.00 49 1012.2
20260507114742 66 294 8.0 19.0 0.00 0.00 0.00 47 1012.2
20260507114241 65 269 6.0 14.0 0.00 0.00 0.00 49 1012.3
20260507113740 64 271 7.0 16.0 0.00 0.00 0.00 50 1012.2
20260507113242 65 309 8.0 16.0 0.00 0.00 0.00 50 1012.3
20260507112742 64 263 7.0 15.0 0.00 0.00 0.00 53 1012.3
20260507112240 64 221 6.0 14.0 0.00 0.00 0.00 50 1012.2
20260507111741 64 251 6.0 14.0 0.00 0.00 0.00 48 1012.2
20260507111239 65 274 6.0 12.0 0.00 0.00 0.00 47 1012.2
20260507110739 65 235 7.0 16.0 0.00 0.00 0.00 45 1012.2
20260507110239 65 228 7.0 16.0 0.00 0.00 0.00 47 1012.2
20260507105739 65 275 6.0 16.0 0.00 0.00 0.00 51 1012.2
20260507105238 64 300 6.0 16.0 0.00 0.00 0.00 50 1012.2
20260507104738 64 250 6.0 11.0 0.00 0.00 0.00 49 1012.2
20260507104236 64 244 7.0 13.0 0.00 0.00 0.00 50 1012.3
20260507103736 65 281 7.0 13.0 0.00 0.00 0.00 49 1012.3
20260507103236 65 227 6.0 14.0 0.00 0.00 0.00 49 1012.2
20260507102736 65 246 6.0 14.0 0.00 0.00 0.00 51 1012.3
20260507102234 66 278 7.0 11.0 0.00 0.00 0.00 50 1012.3
20260507101736 66 271 8.0 13.0 0.00 0.00 0.00 47 1012.3
20260507101246 66 250 8.0 14.0 0.00 0.00 0.00 47 1012.3
20260507100732 66 271 8.0 14.0 0.00 0.00 0.00 48 1012.3
20260507100231 65 229 7.0 13.0 0.00 0.00 0.00 50 1012.2
20260507095731 65 234 7.0 14.0 0.00 0.00 0.00 50 1012.2
20260507095232 65 238 9.0 17.0 0.00 0.00 0.00 51 1012.3
20260507094732 64 259 8.0 17.0 0.00 0.00 0.00 51 1012.2
20260507094241 64 209 5.0 13.0 0.00 0.00 0.00 51 1012.2
20260507093731 63 163 4.0 8.0 0.00 0.00 0.00 54 1012.2
20260507093231 62 261 4.0 8.0 0.00 0.00 0.00 55 1012.3
20260507092732 62 213 4.0 8.0 0.00 0.00 0.00 57 1012.3
20260507092232 62 242 6.0 13.0 0.00 0.00 0.00 58 1012.3
20260507091738 61 242 6.0 13.0 0.00 0.00 0.00 57 1012.3
20260507091219 61 235 6.0 13.0 0.00 0.00 0.00 59 1012.2
20260507090717 61 274 6.0 13.0 0.00 0.00 0.00 58 1012.2
20260507090214 60 219 6.0 13.0 0.00 0.00 0.00 61 1012.2
20260507085713 60 261 6.0 13.0 0.00 0.00 0.00 61 1012.3
20260507085213 60 267 7.0 14.0 0.00 0.00 0.00 59 1012.2
20260507084713 59 258 6.0 14.0 0.00 0.00 0.00 59 1012.2
20260507084216 59 245 6.0 15.0 0.00 0.00 0.00 61 1012.1
20260507083713 59 149 8.0 15.0 0.00 0.00 0.00 58 1012.1
20260507083214 60 227 8.0 16.0 0.00 0.00 0.00 59 1012.0
20260507082713 60 232 8.0 16.0 0.00 0.00 0.00 61 1012.0
20260507082211 60 269 8.0 19.0 0.00 0.00 0.00 58 1012.0
20260507081711 60 259 8.0 19.0 0.00 0.00 0.00 61 1012.0
20260507081211 60 238 8.0 16.0 0.00 0.00 0.00 60 1011.9
20260507080711 60 285 8.0 15.0 0.00 0.00 0.00 60 1011.9
20260507080217 60 259 8.0 18.0 0.00 0.00 0.00 62 1011.8
20260507075713 59 305 8.0 18.0 0.00 0.00 0.00 63 1011.7
20260507075208 59 229 9.0 16.0 0.00 0.00 0.00 62 1011.8
20260507074709 59 259 9.0 19.0 0.00 0.00 0.00 65 1011.8
20260507074205 58 238 9.0 19.0 0.00 0.00 0.00 68 1011.7
20260507073703 58 279 9.0 22.0 0.00 0.00 0.00 66 1011.6
20260507073155 58 281 8.0 22.0 0.00 0.00 0.00 66 1011.7
20260507072652 57 239 8.0 18.0 0.00 0.00 0.00 67 1011.7
20260507072138 57 269 8.0 18.0 0.00 0.00 0.00 69 1011.6
20260507071632 56 257 8.0 18.0 0.00 0.00 0.00 71 1011.6
20260507071132 56 252 8.0 16.0 0.00 0.00 0.00 70 1011.6
20260507070621 55 260 7.0 16.0 0.00 0.00 0.00 72 1011.5
20260507070119 54 271 7.0 16.0 0.00 0.00 0.00 73 1011.6
20260507065613 54 268 7.0 18.0 0.00 0.00 0.00 74 1011.6
20260507065105 53 246 7.0 19.0 0.00 0.00 0.00 75 1011.6
20260507064603 53 249 7.0 19.0 0.00 0.00 0.00 74 1011.6
20260507064104 53 258 7.0 16.0 0.00 0.00 0.00 74 1011.6
20260507063604 53 312 6.0 16.0 0.00 0.00 0.00 74 1011.6
20260507063103 53 209 7.0 17.0 0.00 0.00 0.00 73 1011.5
20260507062602 53 217 8.0 17.0 0.00 0.00 0.00 73 1011.4
20260507062101 54 254 8.0 16.0 0.00 0.00 0.00 73 1011.3
20260507061601 54 200 9.0 16.0 0.00 0.00 0.00 72 1011.3
20260507061109 54 269 9.0 16.0 0.00 0.00 0.00 72 1011.4
20260507060601 54 239 9.0 17.0 0.00 0.00 0.00 73 1011.4
20260507055601 53 281 8.0 17.0 0.00 0.00 0.00 76 1011.3
20260507055102 53 234 8.0 17.0 0.00 0.00 0.00 76 1011.1
20260507054602 53 215 7.0 14.0 0.00 0.00 0.00 76 1011.2
20260507054101 52 238 6.0 14.0 0.00 0.00 0.00 78 1011.1
20260507053602 52 227 5.0 14.0 0.00 0.00 0.00 77 1011.0
20260507053101 52 242 5.0 10.0 0.00 0.00 0.00 78 1011.1
20260507052603 52 229 7.0 14.0 0.00 0.00 0.00 78 1011.0
20260507052055 52 264 8.0 14.0 0.00 0.00 0.00 78 1010.8
20260507051553 52 202 8.0 15.0 0.00 0.00 0.00 79 1010.8
20260507051042 51 213 7.0 15.0 0.00 0.00 0.00 80 1010.7
20260507050537 51 221 6.0 14.0 0.00 0.00 0.00 79 1010.7
20260507050036 51 215 5.0 10.0 0.00 0.00 0.00 81 1010.7
20260507045535 51 242 5.0 11.0 0.00 0.00 0.00 81 1010.6
20260507045037 51 232 5.0 11.0 0.00 0.00 0.00 82 1010.6
20260507044535 51 244 4.0 8.0 0.00 0.00 0.00 82 1010.5
20260507044035 51 284 5.0 12.0 0.00 0.00 0.00 83 1010.4
20260507043533 51 230 6.0 12.0 0.00 0.00 0.00 83 1010.4
20260507043033 51 244 6.0 12.0 0.00 0.00 0.00 83 1010.3
20260507042533 51 213 6.0 10.0 0.00 0.00 0.00 83 1010.2
20260507042034 51 236 5.0 9.0 0.00 0.00 0.00 83 1010.2
20260507041533 51 229 4.0 9.0 0.00 0.00 0.00 83 1010.2
20260507041036 51 257 3.0 7.0 0.00 0.00 0.00 83 1010.2
20260507040533 51 257 4.0 10.0 0.00 0.00 0.00 83 1010.1
20260507040034 51 250 5.0 11.0 0.00 0.00 0.00 83 1010.0